Johnstown, PA

10:19 AM EDT on March 23, 2017 (GMT -0400)
Johnstown-Cambria County

Weather History for KJST - December, 2013

Change the Weather History Date:

Thursday, December 26, 2013

  Actual Average Record
Temperature  
Mean Temperature 25 °F 27 °F  
Max Temperature 29 °F 34 °F 65 °F (1982)
Min Temperature 20 °F 20 °F -15 °F (1983)
Degree Days  
Heating Degree Days 40 38  
Month to date heating degree days 888 932  
Since 1 July heating degree days 2519 2389  
Cooling Degree Days 0 0  
Month to date cooling degree days 0 0  
Year to date cooling degree days 393 382  
Moisture  
Dew Point 19 °F    
Average Humidity 77    
Maximum Humidity 96    
Minimum Humidity 57    
Precipitation  
Precipitation 0.02 in 0.09 in 1.23 in (1957)
Month to date precipitation 2.31 2.18  
Year to date precipitation 36.30 33.23  
Sea Level Pressure  
Sea Level Pressure 30.16 in    
Wind  
Wind Speed 13 mph (WSW)    
Max Wind Speed 25 mph    
Max Gust Speed 33 mph    
Visibility 6 miles    
Events Fog , Snow    
T = Trace of Precipitation, MM = Missing Value Source: NWS Daily Summary

Daily Weather History Graph

Daily Weather History Graph

Search for Another Location

Airport or City:

Trip Planner

Search our weather history database for the weather conditions in past years. The results will help you decide how hot, cold, wet, or windy it might be!

Date:

Astronomy

Dec. 26, 2013 Rise Set
Actual Time 7:36 AM EST 4:55 PM EST
Civil Twilight 7:06 AM EST 5:26 PM EST
Nautical Twilight 6:31 AM EST 6:00 PM EST
Astronomical Twilight 5:58 AM EST 6:33 PM EST
Moon 1:02 AM EST (12/26) 12:30 PM EST (12/26)
Length of Visible Light 10h 20m
Length of Day
9h 18m
Last Quarter, 38% of the Moon is Illuminated
Dec 26
Last Quarter
Jan 1
New
Jan 7
First Quarter
Jan 15
Full
Jan 24
Last Quarter

Hourly Weather History & Observations

Time (EST) Temp. Windchill Dew Point Humidity Pressure Visibility Wind Dir Wind Speed Gust Speed Precip Events Conditions
12:54 AM 21.9 °F 11.7 °F 10.9 °F 63% 30.23 in 10.0 mi SSE 9.2 mph - N/A   Overcast
1:54 AM 21.9 °F 14.5 °F 10.9 °F 63% 30.22 in 10.0 mi South 5.8 mph - N/A   Overcast
2:54 AM 21.9 °F 15.7 °F 12.0 °F 66% 30.22 in 5.0 mi South 4.6 mph - 0.00 in Snow Light Snow
3:25 AM 21.0 °F - 14.0 °F 74% 30.11 in 2.5 mi Calm Calm - 0.00 in Snow Light Snow
3:40 AM 21.0 °F - 16.0 °F 81% 30.10 in 1.5 mi Calm Calm - 0.00 in Snow Light Snow
3:54 AM 19.9 °F 12.1 °F 16.0 °F 85% 30.20 in 1.2 mi SSE 5.8 mph - 0.00 in Snow Light Snow
4:54 AM 19.9 °F 11.1 °F 17.1 °F 89% 30.18 in 1.5 mi South 6.9 mph - 0.01 in Snow Light Snow
5:35 AM 21.0 °F 10.6 °F 19.0 °F 92% 30.07 in 3.0 mi SSW 9.2 mph - 0.01 in Snow Light Snow
5:54 AM 21.9 °F 12.5 °F 19.0 °F 89% 30.17 in 10.0 mi South 8.1 mph - 0.01 in   Overcast
6:54 AM 23.0 °F 11.1 °F 21.0 °F 92% 30.17 in 10.0 mi SSW 12.7 mph - N/A   Overcast
7:15 AM 24.1 °F 14.4 °F 21.0 °F 88% 30.06 in 10.0 mi SSW 9.2 mph - N/A   Overcast
7:54 AM 24.1 °F 15.2 °F 21.9 °F 91% 30.16 in 10.0 mi SSW 8.1 mph - N/A   Overcast
8:54 AM 25.0 °F 14.8 °F 21.9 °F 88% 30.17 in 5.0 mi WSW 10.4 mph - 0.00 in Snow Light Snow
9:06 AM 26.1 °F 15.0 °F 21.9 °F 84% 30.07 in 2.0 mi WSW 12.7 mph - 0.00 in Snow Light Snow
9:16 AM 26.1 °F 14.0 °F 23.0 °F 88% 30.08 in 1.5 mi WSW 15.0 mph - 0.00 in Snow Light Snow
9:32 AM 26.1 °F 13.1 °F 23.0 °F 88% 30.09 in 0.5 mi WSW 17.3 mph - 0.00 in Fog , Snow Snow
9:41 AM 26.1 °F 14.0 °F 24.1 °F 92% 30.09 in 0.8 mi WSW 15.0 mph 24.2 mph 0.00 in Snow Light Snow
9:54 AM 26.1 °F 13.6 °F 24.1 °F 92% 30.19 in 1.5 mi WSW 16.1 mph - 0.00 in Snow Light Snow
9:58 AM 26.1 °F 14.0 °F 23.0 °F 88% 30.10 in 2.0 mi WSW 15.0 mph - 0.00 in Snow Light Snow
10:24 AM 26.1 °F 12.7 °F 23.0 °F 88% 30.10 in 1.0 mi WSW 18.4 mph 31.1 mph 0.00 in Snow Light Snow
10:30 AM 26.1 °F 12.7 °F 23.0 °F 88% 30.10 in 0.8 mi WSW 18.4 mph 28.8 mph 0.00 in Snow Light Snow
10:54 AM 26.1 °F 13.1 °F 24.1 °F 92% 30.20 in 1.2 mi WSW 17.3 mph 25.3 mph 0.00 in Snow Light Snow
10:58 AM 26.1 °F 14.5 °F 23.0 °F 88% 30.10 in 3.0 mi WSW 13.8 mph 25.3 mph 0.00 in Snow Light Snow
11:12 AM 26.1 °F 12.7 °F 21.9 °F 84% 30.10 in 5.0 mi West 18.4 mph 28.8 mph 0.00 in Snow Light Snow
11:22 AM 27.0 °F 14.3 °F 21.0 °F 78% 30.10 in 2.5 mi West 17.3 mph 31.1 mph 0.00 in Snow Light Snow
11:32 AM 27.0 °F 14.3 °F 21.0 °F 78% 30.10 in 8.0 mi WSW 17.3 mph 27.6 mph 0.00 in   Overcast
11:54 AM 27.0 °F 15.2 °F 19.9 °F 75% 30.20 in 5.0 mi West 15.0 mph 26.5 mph 0.00 in Snow Light Snow
12:05 PM 27.0 °F 14.3 °F 21.0 °F 78% 30.10 in 2.5 mi WSW 17.3 mph 26.5 mph 0.00 in Snow Light Snow
12:13 PM 27.0 °F 15.2 °F 19.9 °F 75% 30.10 in 9.0 mi West 15.0 mph 25.3 mph 0.00 in   Overcast
12:49 PM 26.6 °F 12.7 °F 19.4 °F 74% 30.09 in 2.0 mi West 20.7 mph 28.8 mph 0.00 in Snow Light Snow
12:54 PM 27.0 °F 15.2 °F 19.9 °F 75% 30.18 in 3.0 mi West 15.0 mph 27.6 mph 0.00 in Snow Light Snow
1:20 PM 26.1 °F 12.0 °F 21.0 °F 81% 30.09 in 1.8 mi West 20.7 mph 27.6 mph 0.00 in Snow Light Snow
1:29 PM 27.0 °F 13.9 °F 19.9 °F 75% 30.09 in 3.0 mi WSW 18.4 mph 28.8 mph 0.00 in Snow Light Snow
1:54 PM 28.0 °F 14.3 °F 18.0 °F 66% 30.18 in 6.0 mi West 21.9 mph 31.1 mph 0.00 in   Overcast
2:54 PM 28.9 °F 16.9 °F 17.1 °F 61% 30.20 in 10.0 mi West 17.3 mph 26.5 mph 0.00 in   Mostly Cloudy
3:54 PM 28.0 °F 16.5 °F 16.0 °F 61% 30.23 in 10.0 mi West 15.0 mph 28.8 mph 0.00 in   Partly Cloudy
4:54 PM 27.0 °F 17.3 °F 16.0 °F 63% 30.25 in 10.0 mi West 10.4 mph 23.0 mph 0.00 in   Clear
5:54 PM 27.0 °F 18.7 °F 16.0 °F 63% 30.26 in 10.0 mi West 8.1 mph - N/A   Mostly Cloudy
6:54 PM 27.0 °F 18.0 °F 16.0 °F 63% 30.27 in 10.0 mi West 9.2 mph - N/A   Partly Cloudy
7:54 PM 27.0 °F 14.7 °F 14.0 °F 58% 30.27 in 10.0 mi West 16.1 mph 23.0 mph N/A   Clear
8:54 PM 26.1 °F 14.0 °F 14.0 °F 60% 30.29 in 10.0 mi West 15.0 mph 29.9 mph N/A   Clear
9:54 PM 25.0 °F 12.2 °F 12.0 °F 58% 30.31 in 10.0 mi WNW 16.1 mph 24.2 mph N/A   Clear
10:54 PM 23.0 °F 8.7 °F 10.9 °F 60% 30.32 in 10.0 mi WNW 18.4 mph 24.2 mph N/A   Clear
11:54 PM 21.9 °F 11.0 °F 10.0 °F 60% 30.33 in 10.0 mi West 10.4 mph - N/A   Clear